Regional Weather Roundup
Issued by NWS

Home | Current Version | Previous Version | Graphics & Text | Print | Product List | Glossary On
Versions: 1 2 3 4 5 6 7 8 9 10 11 12 13 14 15 16 17 18 19 20 21 22 23 24 25 26 27 28 29 30 31 32 33 34 35 36 37 38 39 40 41 42 43 44 45 46 47 48 49 50
000
ASUS43 KFSD 040602
RWRSD

WEATHER ROUNDUP FOR SOUTH DAKOTA
NATIONAL WEATHER SERVICE SIOUX FALLS SD
100 AM CDT WED MAY 04 2016

NOTE: "FAIR" INDICATES FEW OR NO CLOUDS BELOW 12,000 FEET WITH NO
SIGNIFICANT WEATHER AND/OR OBSTRUCTIONS TO VISIBILITY.


SDZ001>005-009-010-012>017-040700-
NORTHWEST AND NORTH CENTRAL SOUTH DAKOTA

CITY           SKY/WX    TMP DP  RH WIND       PRES   REMARKS
BUFFALO          N/A     55  38  52 W5        30.06R
FAITH            N/A     57  38  48 N3        30.08R
MOBRIDGE       CLEAR     51  31  46 NE10      30.03R
$$

SDZ012>016-024>037-041>051-057-063-072>074-040700-
SOUTHWEST AND SOUTH CENTRAL SOUTH DAKOTA

CITY           SKY/WX    TMP DP  RH WIND       PRES   REMARKS
RAPID CTY ARPT CLEAR     50  38  63 NW8       30.11S
PIERRE         CLEAR     46  37  71 NE8       30.03R
CUSTER         CLEAR     48  32  53 N6        30.22S
ELLSWORTH AFB  CLEAR     50  40  67 NW6       30.11R
PHILIP         CLEAR     46  42  86 W7        30.07R
PINE RIDGE     CLEAR     44  38  79 NW3       30.12R
WINNER         FAIR      50  42  74 W6        30.04R
$$

SDZ004>011-016>023-039-040-040700-
NORTHEAST SOUTH DAKOTA

CITY           SKY/WX    TMP DP  RH WIND       PRES   REMARKS
ABERDEEN       CLEAR     45  31  58 N10       30.02R
WATERTOWN      CLEAR     44  31  60 N10       29.97R
BROOKINGS      CLEAR     44  32  62 N8        29.94R
SISSETON         N/A     47  32  56 N13       29.97R
$$

SDZ017-020-022-023-036>040-048>070-040700-
SOUTHEAST SOUTH DAKOTA

CITY           SKY/WX    TMP DP  RH WIND       PRES   REMARKS
SIOUX FALLS    CLEAR     48  33  56 N10       29.94R
HURON          CLEAR     46  32  58 N9        30.00R
MITCHELL       CLEAR     51  37  58 N9        29.99R
YANKTON        CLEAR     50  37  62 NW10      29.95R
$$

ABBREVIATIONS USED IN REMARKS
   TC - TEMPERATURE IN CELSIUS
  WCI - WIND CHILL INDEX
   HX - HEAT INDEX
  VSB - VISIBILITY





USA.gov is the U.S. government's official web portal to all federal, state and local government web resources and services.